Location: Mt. Graham
(32.7020°N, 109.8880°W)
Time: 21:10:44
(UTC-07:00)

Tiangong - Visible Passes

Search period start: 03 March 2024 00:00
Search period end: 13 March 2024 00:00
Orbit: 375 x 384 km, 41.5° (Epoch: 03 March)

Date Brightness Start Highest point End Pass type
(mag) Time Alt. Az. Time Alt. Az. Time Alt. Az.
03 Mar 0.1 19:38:35 10° NW 19:40:35 16° N 19:41:08 15° NNE visible
04 Mar 0.7 20:14:02 10° NW 20:14:45 13° NNW 20:14:45 13° NNW visible
05 Mar 0.1 19:12:28 10° NW 19:14:29 16° N 19:16:11 11° NE visible
06 Mar -0.4 19:47:28 10° NW 19:49:41 22° N 19:49:41 22° N visible
07 Mar -0.1 18:45:54 10° NW 18:48:06 18° N 18:50:19 10° NE visible
07 Mar 0.6 20:22:12 10° NW 20:23:08 18° NW 20:23:08 18° NW visible
08 Mar -1.0 19:20:36 10° NW 19:23:23 30° NNE 19:24:29 24° ENE visible
09 Mar -1.8 19:55:16 10° WNW 19:57:55 63° WNW 19:57:55 63° WNW visible
10 Mar -1.8 18:53:26 10° NW 18:56:26 48° NNE 18:59:18 11° E visible
10 Mar 0.9 20:30:35 10° W 20:31:23 14° WSW 20:31:23 14° WSW visible
11 Mar -1.3 19:28:10 10° WNW 19:31:08 43° SSW 19:32:49 21° SSE visible
12 Mar 0.8 20:04:35 10° WSW 20:05:27 11° SW 20:06:20 10° SSW visible
